{"data":{"norad_id":48077,"intl_designator":"2021-025AM","name":"ONEWEB-0169","alt_names":[],"object_type":"PAYLOAD","status":"ACTIVE","operator":null,"country":"UK","launch_date":"2021-03-25","launch_site_code":"VOSTO","launch_vehicle":null,"mission":null,"orbit_class":"UNKNOWN","rcs_meters":null,"size_class":null,"mass_kg":null,"dimensions":null,"purposes":["comms"],"wikipedia_slug":null,"has_3d_model":false,"image_url":null,"decayed_at":null,"tle_current":{"epoch":"2026-09-19T20:57:00.853056Z","epoch_age_seconds":72486,"freshness":"FRESH","line1":"1 48077U 21025AM  26262.87292654  .00000334  00000+0  87836-3 0  9991","line2":"2 48077  87.8922 301.3859 0001854  98.7080 261.4259 13.13468299264730","mean_motion":13.13468299,"eccentricity":0.0001854,"inclination_deg":87.8922,"raan_deg":301.3859,"arg_perigee_deg":98.708,"mean_anomaly_deg":261.4259,"bstar":0.00087836,"rev_number":26473,"period_min":109.63340349336,"perigee_km":1208.3651526939,"apogee_km":1211.1787493329,"semimajor_km":7587.9089510134,"source":"CELESTRAK","updated_at":"2026-09-20T09:00:44.591685Z"}}}